星链-32503 (STARLINK-32503)

导读

STARLINK-32503是美国SpaceX公司星链(Starlink)星座的一颗低轨通信卫星,于2024年11月30日发射入轨。 星链项目旨在通过大规模低轨卫星星座为全球提供高速低延迟宽带互联网服务,STARLINK-32503属于星链卫星技术迭代后的型号,配备激光星间链路,可支持地面终端直连,助力扩展全球网络覆盖,尤其服务偏远地区与特殊场景通信需求,同时也延续了星链项目在太空轨道利用等方面的争议。

Basic Information
目录编号:
62157
目录名称:
STARLINK-32503
国际标识:
2024-224U
轨道中心:
EARTH
卫星名称:
星链-32503
卫星全名:
星链-32503 (STARLINK-32503)
卫星状态:
在轨 (已飞行650 天)
发射日期:
2024-11-30 UTC
国别 :
美国 (US)
星等 :
--
This satellite is enrolled in the Space Conjunction Data Service (SCDS) and the current flight risk assessment level is: No High Risk
Orbit Information
数据来源 国际轨道数据 AOE轨道数据
星历时间 2026-09-11T14:04:36+0800
11小时前
查看轨道信息
2026-09-09T23:00:00+0800
2天前
查看轨道信息
半长轴 6861.092km 6861.158km
偏心率 0.0001409 0.0001284
轨道倾角 43.001° 42.999°
近地点辐角 281.280° 237.274°
升交点赤经 197.566° 206.761°
平近点角 78.790° 158.320°
近地点 481.988km 482.14km
远地点 483.922km 483.902km
周期 94.265分钟 94.266分钟
每日圈数 15.276116 15.275895
Detailed Information
固有亮度:
5
最大亮度:
2.5
卫星平台:
Starlink V1.0
覆盖范围:
全球
运营商:
太空探索技术公司
运营商所在国:
美国
制造商(研发单位):
太空探索技术公司
制造商所在国:
美国
使用方式:
暂无
Satellite Introduction
Starlink 计划是 SpaceX 推出的全球卫星互联网项目,通过发射低轨道卫星,为全球尤其是偏远地区提供高速、低延迟的互联网服务。自 2019 年起,Starlink 已部署数千颗卫星,旨在缩小全球数字鸿沟,推动互联网普及。该项目还为军事、航空等行业提供通信支持,带来广泛经济效益。
2D Orbit Map
3D Orbit Map
Orbit Altitude Analysis Chart
Orbit Inclination Analysis Chart
Orbit Comprehensive Analysis Chart
View Comprehensive Chart
Conjunction Data List
Event ID Objects TCA Miss Dist (km) Collision Risk Probability Collision Risk Index (CRI) Action
CDM_260913-213005-533506-215721
2026-09-13T
21:30:29+0000
0.632 km
远距离
8.695405E-5 中风险 0.74
CDM_260913-034805-862106-215721
2026-09-13T
03:48:04+0000
0.738 km
远距离
4.758236E-5 中风险 0.69
CDM_260912-160105-862106-215721
2026-09-12T
16:01:54+0000
0.824 km
远距离
3.341767E-5 中风险 0.65
CDM_260910-012706-215706-438521
2026-09-10T
01:27:37+0000
0.727 km
远距离
1.639415E-5 中风险 0.59
CDM_260913-023304-097506-215721
2026-09-13T
02:33:21+0000
1.301 km
极远距离
8.553262E-6 低风险 0.54
CDM_260912-142705-862106-215721
2026-09-12T
14:27:45+0000
1.346 km
极远距离
6.241089E-6 低风险 0.51
CDM_260912-051606-215706-767823
2026-09-12T
05:16:52+0000
1.891 km
极远距离
2.992609E-6 低风险 0.45
CDM_260910-034806-215706-438521
2026-09-10T
03:48:50+0000
1.220 km
极远距离
2.868001E-6 低风险 0.44
CDM_260911-204005-742606-215721
OBJECT C (57426)
2026-09-11T
20:40:42+0000
2.244 km
极远距离
2.011581E-6 低风险 0.41
CDM_260904-031005-864806-215722
2026-09-04T
03:10:14+0000
2.029 km
极远距离
1.826703E-6 低风险 0.4
Miss Distance Evolution Trend with All Objects
Collision Probability Evolution Trend with All Objects